Location: Ballymorris
(52.1772°N, 7.2308°W)
Time: 06:58:12
(UTC+00:00)

Daily predictions for brighter satellites

Satellite Brightness Start Highest point End
(mag) Time Altitude Azimuth Time Altitude Azimuth Time Altitude Azimuth
DMSP B5D2-2 4.1 20:39:33 10° NNE 20:44:49 85° ESE 20:50:04 10° SSW
SPOT 1/Viking Rocket 4.3 20:40:49 10° SE 20:45:36 38° ENE 20:50:25 10° N
SL-4 R/B 3.4 20:44:10 10° S 20:46:36 16° SE 20:48:55 10° ESE
Genesis I 3.9 20:42:51 10° NW 20:46:36 45° NE 20:50:21 10° ESE
BREEZE-M DEB (TANK) 2.7 20:44:58 10° SW 20:47:22 38° SSE 20:52:15 10° E
ATLAS 5 CENTAUR R/B 3.0 20:44:03 10° NW 20:49:29 53° SW 20:55:49 10° SSE
Cosmos 1140 Rocket 4.4 20:46:46 10° SSE 20:51:15 30° E 20:55:46 10° NE
Cosmos 389 Rocket 2.6 20:49:46 10° NNW 20:53:13 75° W 20:56:39 10° S
Cosmos 2228 Rocket 3.8 20:49:23 10° NNW 20:53:44 55° W 20:58:02 10° S
Cosmos 1812 2.7 20:52:27 10° NNW 20:56:20 86° WSW 21:00:10 10° S
Cosmos 1697 Rocket 2.7 20:51:17 10° NNW 20:56:57 89° ENE 21:02:35 10° SSE
Cosmos 1833 Rocket 3.0 20:54:44 10° S 21:00:03 45° ESE 21:05:24 10° NE
Cosmos 1633 Rocket 3.8 20:56:22 10° SSE 21:00:21 34° E 21:04:21 10° NNE
SPOT 3 Rocket 4.1 20:58:03 10° S 21:03:12 59° WSW 21:08:22 10° NNW
Cosmos 2251 Rocket 4.0 21:00:33 10° SW 21:05:47 68° WNW 21:11:06 10° NNE
CENTAUR R/B 4.1 21:04:47 10° SE 21:07:09 12° E 21:09:38 10° ENE
Cosmos 1707 Rocket 3.5 21:03:28 10° N 21:07:51 82° E 21:12:11 10° SSE
Cosmos 1656 4.5 21:02:50 10° NW 21:08:05 47° WSW 21:13:21 10° S
Resurs 01 Rocket 2.1 21:06:52 10° S 21:11:14 63° WSW 21:15:39 10° NNW
Landsat 7 3.9 21:09:16 10° SSE 21:13:59 70° ENE 21:18:45 10° N
Cosmos 1441 Rocket 3.1 21:11:00 10° SSW 21:14:49 89° ENE 21:18:36 10° NNE
ATLAS 5 CENTAUR R/B 3.0 21:17:01 10° NNW 21:18:53 23° NNE 21:21:53 10° E
IGS 5A 3.4 21:17:36 10° SSE 21:21:44 81° ENE 21:25:54 10° NNW
Cosmos 1470 Rocket 4.4 21:19:31 12° SSE 21:23:05 33° E 21:27:01 10° NNE
Cosmos 614 Rocket 3.9 21:18:23 10° SSW 21:23:33 83° ESE 21:28:48 10° NNE
Cosmos 2360 4.4 21:18:27 10° NNW 21:24:13 77° WSW 21:29:33 12° SSE
Cosmos 1934 Rocket 4.1 21:18:49 10° S 21:25:05 64° E 21:31:24 10° NNE
GP-B 3.2 21:22:03 10° N 21:26:28 59° E 21:30:41 11° SSE
Cosmos 921 Rocket 3.3 21:27:40 10° NNW 21:31:51 52° ENE 21:34:50 18° SE
NOSS 3-2 (A) 4.2 21:27:23 10° S 21:32:15 29° ESE 21:37:40 10° ENE
USA 267 3.2 21:26:33 10° ENE 21:33:04 63° SE 21:39:33 10° SW
Cosmos 1862 Rocket 3.6 21:29:54 10° N 21:34:25 77° ENE 21:38:10 14° SSE
COSMOS 2406 3.4 21:32:37 10° SW 21:38:22 77° WNW 21:44:09 10° NNE
Cosmos 1821 Rocket 4.3 21:32:23 10° SSW 21:38:30 71° WNW 21:44:46 10° N
Meteor 2-20 Rocket 4.5 21:32:31 10° N 21:38:45 87° E 21:44:35 12° S
SL-16 R/B 3.0 21:34:28 10° NNW 21:39:53 42° NE 21:44:17 15° ESE
SAR-Lupe-2 4.4 21:36:56 10° NNE 21:40:12 32° E 21:41:56 20° SE
ERS-1 Rocket 3.0 21:36:08 15° SSE 21:40:14 69° ENE 21:45:15 10° N
Lacrosse 5 2.1 21:36:00 10° WNW 21:41:05 71° NNE 21:45:32 14° ESE
Cosmos 468 Rocket 4.5 21:36:45 10° NNW 21:41:58 52° ENE 21:45:45 18° SE
Sich 1 3.7 21:38:35 10° SSW 21:42:57 58° WNW 21:47:23 10° N
Cosmos 2369 4.4 21:39:18 10° NW 21:44:49 49° WSW 21:50:01 11° S
NOSS 2 (A) 4.0 21:47:05 10° NW 21:49:51 87° NE 21:50:43 36° SE
Cosmos 2219 Rocket 4.4 21:46:19 10° NNW 21:50:07 18° NNE 21:53:54 10° ENE
Cosmos 2082 Rocket 2.2 21:47:34 10° SSW 21:53:12 67° ESE 21:58:51 10° NE
Cosmos 1954 Rocket 4.1 21:48:04 10° S 21:53:16 57° ESE 21:58:31 10° NNE
Meteor 1-4 Rocket 3.4 21:50:27 10° NNW 21:53:48 43° W 21:56:38 13° SSW
Cosmos 2278 4.1 21:48:31 10° NW 21:54:09 60° WSW 21:58:39 16° S
Cosmos 1184 Rocket 2.7 21:53:56 17° S 21:56:23 79° E 21:59:42 10° NNE
Cosmos 2123 Rocket 4.3 21:50:22 10° NNW 21:56:31 65° W 22:02:40 10° S
Spot 2 Rocket 4.1 21:51:37 10° S 21:56:34 54° W 22:01:35 10° NNW
CARTOSAT-1 3.6 21:57:11 19° SSE 22:00:16 82° WSW 22:04:37 10° NNW
Cosmos 2322 Rocket 2.8 21:56:47 10° NNW 22:02:20 49° NE 22:06:13 19° ESE
Terra 1.9 22:00:02 22° SSE 22:03:05 70° ENE 22:07:51 10° N
Cosmos 1933 Rocket 3.7 22:01:23 21° SSE 22:04:12 58° E 22:08:34 10° NNE
Cosmos 1190 Rocket 4.2 21:59:04 10° SSW 22:04:21 78° WNW 22:09:43 10° NNE
Cosmos 1666 Rocket 4.3 22:00:32 10° SSW 22:04:45 51° WNW 22:09:01 10° N
Okean 1 3.3 22:00:51 10° N 22:04:54 75° E 22:07:06 26° SSE
Cosmos 407 Rocket 4.0 22:02:00 10° SW 22:07:17 64° WNW 22:12:33 10° NNE
Cosmos 1238 Rocket 1.9 22:06:54 30° S 22:08:13 75° E 22:11:10 10° NNE
Cosmos 1602 3.9 22:06:47 26° SSE 22:08:48 57° E 22:12:41 10° NNE
Cosmos 1437 Rocket 2.8 22:05:24 10° N 22:09:12 58° ENE 22:10:50 30° SE
USA 234 3.7 22:06:06 20° SSE 22:10:32 50° SW 22:16:52 10° WNW
Meteor 1-20 Rocket 4.3 22:05:29 11° S 22:11:11 82° E 22:17:04 10° NNE
Cosmos 1605 Rocket 3.9 22:05:45 10° S 22:11:52 87° E 22:18:00 10° N
ERBS 3.6 22:09:04 10° W 22:12:14 40° NNW 22:15:23 10° ENE
Cosmos 1869 Rocket 4.5 22:13:01 26° SE 22:14:29 32° E 22:18:27 10° NNE
Cosmos 2360 Rocket 3.2 22:11:07 10° NNW 22:16:25 38° NE 22:20:19 17° ESE
SPOT 5 2.8 22:15:08 22° S 22:17:50 65° WSW 22:22:12 10° NNW
Meteor 1-19 Rocket 4.1 22:15:46 10° NNW 22:21:14 88° WSW 22:24:35 24° S
ATLAS 3B R/B 4.0 22:21:12 17° ESE 22:21:37 17° ESE 22:25:39 10° ENE
Cosmos 1703 Rocket 3.5 22:17:43 10° N 22:22:06 85° ENE 22:24:15 30° SSE
Cosmos 2242 Rocket 3.7 22:17:59 10° NNW 22:22:26 73° W 22:24:58 25° S
Iridium 4 Rocket 3.8 22:21:45 28° SE 22:23:13 37° E 22:27:08 10° NNE
Geosat 4.3 22:20:48 24° ESE 22:23:45 59° NE 22:28:43 10° NNW
Cosmos 2173 Rocket 4.4 22:21:11 24° SSE 22:24:29 46° E 22:30:18 10° NNE
Cosmos 1980 Rocket 3.1 22:19:45 10° NW 22:25:01 40° WSW 22:28:51 17° S
SL-4 R/B 1.8 22:21:56 10° SW 22:25:38 49° SSE 22:27:13 28° E
Cosmos 1500 3.9 22:25:10 31° ESE 22:25:47 34° E 22:29:12 10° NNE
Cosmos 405 Rocket 2.5 22:24:29 27° S 22:26:22 89° ESE 22:30:08 10° NNE
USA 238 DEB 3.6 22:21:20 10° SSW 22:27:51 61° SE 22:34:40 10° NE
USA 238 3.7 22:21:27 10° SSW 22:27:57 61° SE 22:34:46 10° NE
Cosmos 1763 Rocket 3.5 22:22:56 10° NNW 22:28:18 86° WSW 22:31:09 29° SSE
ALOS 2 4.4 22:27:44 15° E 22:29:48 21° ENE 22:33:03 10° NNE
Cosmos 1140 Rocket 4.3 22:27:42 10° SW 22:32:49 52° WNW 22:37:58 10° NNE
Meteor 1-14 Rocket 4.3 22:29:24 21° S 22:33:22 74° E 22:39:19 10° NNE
Cosmos 1536 4.5 22:34:39 19° E 22:34:56 19° E 22:37:47 10° NE
Cosmos 2333 Rocket 3.8 22:31:41 10° NNW 22:36:40 29° NE 22:41:19 11° E
Cosmos 1666 4.1 22:37:32 22° E 22:37:37 22° E 22:40:34 10° NE
Meteor 1-13 Rocket 4.4 22:35:19 10° N 22:40:48 56° ENE 22:43:23 30° SE
Okean 1-7 3.2 22:39:08 10° NNW 22:43:28 67° W 22:45:21 32° S
Cosmos 1833 Rocket 4.0 22:38:45 10° WSW 22:44:03 42° NW 22:49:25 10° NNE
Cosmos 2061 Rocket 4.5 22:41:23 28° SE 22:44:08 44° E 22:49:58 10° NNE
MOS 1-B Rocket 4.2 22:39:05 10° NNE 22:44:34 44° E 22:46:44 31° SSE
Cosmos 2221 Rocket 4.0 22:40:39 10° N 22:45:00 49° ENE 22:46:29 35° SE
Cosmos 1459 Rocket 4.1 22:42:36 27° SSE 22:46:03 64° E 22:52:21 10° NNE
FALCON 9 DEB 3.1 22:45:28 10° WSW 22:48:49 59° SSE 22:48:49 59° SSE
Okean 3 3.6 22:44:56 10° N 22:49:12 63° ENE 22:50:30 41° SE
Cosmos 1867 3.7 22:43:54 10° SW 22:49:21 80° NW 22:54:52 10° NE
Cosmos 1733 Rocket 4.3 22:50:59 25° ESE 22:51:36 26° E 22:55:17 10° NNE
Cosmos 1515 4.4 22:48:10 10° NNW 22:51:53 47° W 22:53:17 31° SSW
SL-27 R/B 2.8 22:53:08 44° E 22:53:08 44° E 22:56:02 10° NE
Thor Agena Rocket 4.2 22:51:04 10° NNE 22:55:46 37° E 22:56:59 32° SE
CENTAUR R/B 2.6 22:51:50 20° SSW 22:56:02 57° SE 23:03:03 10° NE
Cosmos 1850 Rocket 3.9 22:54:33 26° SSW 22:57:37 78° ESE 23:02:55 10° NNE
Cosmos 967 Rocket 4.5 22:51:18 10° NW 22:57:45 85° NE 23:01:04 30° SE
Meteor 2-4 Rocket 3.8 22:52:31 10° NNW 22:58:15 74° W 23:00:58 31° S
Cosmos 44 3.3 22:54:44 10° NW 22:59:36 86° SW 23:01:33 39° SE
Cosmos 1802 Rocket 4.1 22:58:41 30° S 23:01:56 68° E 23:08:16 10° NNE
Spot 4 3.8 23:06:33 41° SSE 23:08:13 75° ENE 23:13:03 10° NNW
Cosmos 2346 Rocket 4.4 23:02:22 10° N 23:08:28 82° E 23:11:12 35° SSE
Cosmos 1378 4.4 23:08:39 10° N 23:11:59 29° ENE 23:12:29 28° E
USA 267 3.5 23:09:41 10° ENE 23:16:11 70° NNW 23:22:41 10° W
Cosmos 841 Rocket 3.7 23:15:09 10° NNW 23:20:18 62° WSW 23:22:05 39° S
Cosmos 540 Rocket 3.6 23:16:22 10° NNW 23:21:29 62° WSW 23:23:10 40° S
NOSS 3-2 (A) 3.6 23:16:34 10° SW 23:22:27 76° NW 23:29:19 10° NE
Lacrosse 5 2.4 23:19:09 10° WNW 23:23:54 41° SW 23:24:41 38° SSW
Cosmos 1816 Rocket 4.4 23:17:34 10° N 23:23:55 86° ENE 23:26:36 37° SSE
SL-16 R/B 2.8 23:18:42 10° NW 23:24:04 45° WSW 23:26:08 32° SSW
Cosmos 2322 4.0 23:21:17 10° NNW 23:26:56 61° NE 23:29:31 32° ESE
Cosmos 1378 Rocket 4.1 23:23:29 10° N 23:27:50 49° ENE 23:28:49 41° ESE
NOSS 3-2 (C) 3.4 23:23:11 14° SW 23:28:18 86° SE 23:35:07 10° NE
COSMOS 2487 4.1 23:32:14 23° ENE 23:32:14 23° ENE 23:34:09 10° NE
Cosmos 1741 Rocket 4.4 23:28:41 21° SW 23:32:11 63° WNW 23:37:27 10° NNE
Cosmos 2208 Rocket 4.3 23:28:57 10° NNW 23:34:07 55° WSW 23:35:41 40° SSW
Cosmos 1814 Rocket 4.2 23:29:06 10° NNW 23:34:12 58° WSW 23:35:45 41° SSW
Cosmos 2219 Rocket 2.8 23:29:51 10° NNW 23:35:26 52° NE 23:38:19 27° ESE
Cosmos 2084 Rocket 3.3 23:35:30 62° SE 23:35:40 63° SE 23:39:56 10° NE
Tsikada Rocket 4.0 23:30:42 10° N 23:37:08 87° W 23:39:45 38° S
Cosmos 2082 Rocket 4.0 23:32:42 10° WSW 23:37:46 31° NW 23:42:48 10° NNE
EO 1 Del DPAF 3.1 23:36:04 10° NNE 23:39:50 72° ESE 23:39:56 71° ESE
Cosmos 2237 4.3 23:35:06 10° NW 23:40:46 64° WSW 23:42:34 42° S
Terra 3.9 23:38:55 13° SW 23:41:21 19° W 23:44:40 10° NW
Cosmos 2333 4.3 23:35:33 10° NNW 23:41:23 75° ENE 23:43:44 38° SE
Cosmos 1242 Rocket 2.5 23:42:31 10° NNW 23:46:07 77° W 23:46:07 77° W
Cosmos 2322 Rocket 3.1 23:41:06 10° NW 23:46:18 38° WSW 23:48:01 31° SW
ERBS 3.7 23:45:54 10° WNW 23:49:00 37° N 23:51:02 18° ENE
Helios 1A 3.7 23:49:48 38° ESE 23:50:42 44° ENE 23:54:44 10° N
Cosmos 1486 Rocket 4.5 23:52:11 40° SE 23:52:54 42° ESE 23:57:48 10° NE
Meteor 1-11 Rocket 3.8 23:51:38 36° SSW 23:53:59 74° WNW 23:59:47 10° N
Cosmos 1544 4.5 23:54:38 28° E 23:54:38 28° E 23:57:28 10° NNE
